HEBOWX Weather Reports


Display with metric or nautical units.
time (UTC)temp
F
wind
direction
speed
MPH
gust
MPH
rain 1hr
in
rain 24hr
in
rain mn
in
humidity
%
barometer
mb
20260510101541 45 296 2.0 5.0 0.00 0.00 0.00 80 1013.8
20260510101041 45 320 2.0 6.0 0.00 0.00 0.00 78 1014.0
20260510100541 45 329 3.0 6.0 0.00 0.00 0.00 78 1014.0
20260510100041 45 316 3.0 6.0 0.00 0.00 0.00 77 1014.0
20260510095541 46 306 2.0 5.0 0.00 0.00 0.00 76 1013.8
20260510095041 46 308 1.0 4.0 0.00 0.00 0.00 75 1013.7
20260510094041 46 319 2.0 5.0 0.00 0.00 0.00 73 1013.7
20260510093541 47 326 2.0 5.0 0.00 0.00 0.00 72 1013.8
20260510093041 47 327 2.0 5.0 0.00 0.00 0.00 71 1013.8
20260510092541 47 331 2.0 4.0 0.00 0.00 0.00 71 1014.0
20260510092042 47 338 2.0 2.0 0.00 0.00 0.00 71 1014.1
20260510091541 47 344 1.0 2.0 0.00 0.00 0.00 71 1014.0
20260510091041 47 331 0.0 2.0 0.00 0.00 0.00 71 1013.8
20260510090541 47 331 0.0 2.0 0.00 0.00 0.00 71 1013.8
20260510090041 46 0 0.0 0.0 0.00 0.00 0.00 72 1013.7
20260510085541 46 340 0.0 3.0 0.00 0.00 0.00 72 1013.7
20260510085041 46 322 0.0 3.0 0.00 0.00 0.00 73 1013.8
20260510084541 46 330 1.0 3.0 0.00 0.00 0.00 74 1014.0
20260510084041 46 348 2.0 4.0 0.00 0.00 0.00 73 1014.1
20260510083541 46 329 2.0 4.0 0.00 0.00 0.00 71 1014.1
20260510083042 47 333 2.0 4.0 0.00 0.00 0.00 70 1014.2
20260510082541 47 329 2.0 3.0 0.00 0.00 0.00 68 1014.1
20260510082041 48 326 1.0 3.0 0.00 0.00 0.00 66 1014.0
20260510081541 48 330 2.0 3.0 0.00 0.00 0.00 65 1014.1
20260510081041 49 344 1.0 3.0 0.00 0.00 0.00 63 1014.2
20260510080541 49 333 1.0 3.0 0.00 0.00 0.00 63 1014.2
20260510080041 50 337 1.0 2.0 0.00 0.00 0.00 62 1014.1
20260510075542 50 0 0.0 0.0 0.00 0.00 0.00 62 1014.1
20260510075041 50 0 0.0 0.0 0.00 0.00 0.00 61 1014.1
20260510074541 51 0 0.0 0.0 0.00 0.00 0.00 59 1014.1
20260510074041 50 0 0.0 0.0 0.00 0.00 0.00 60 1014.0
20260510073541 51 338 0.0 0.0 0.00 0.00 0.00 60 1014.0
20260510073041 51 0 0.0 0.0 0.00 0.00 0.00 60 1014.0
20260510072541 51 0 0.0 2.0 0.00 0.00 0.00 57 1014.0
20260510072041 51 337 0.0 2.0 0.00 0.00 0.00 56 1014.0
20260510071541 51 337 0.0 2.0 0.00 0.00 0.00 55 1014.0
20260510071041 51 0 0.0 0.0 0.00 0.00 0.00 54 1014.0
20260510070542 51 0 0.0 0.0 0.00 0.00 0.00 53 1014.1
20260510070041 51 0 0.0 0.0 0.00 0.00 0.00 53 1014.1
20260510065542 51 0 0.0 0.0 0.00 0.00 0.00 53 1014.1
20260510065041 51 0 0.0 0.0 0.00 0.00 0.00 55 1014.2
20260510064541 51 0 0.0 0.0 0.00 0.00 0.00 55 1014.2
20260510064041 51 0 0.0 0.0 0.00 0.00 0.00 56 1014.2
20260510063542 51 0 0.0 2.0 0.00 0.00 0.00 58 1014.2
20260510063041 51 344 0.0 2.0 0.00 0.00 0.00 58 1014.2
20260510062542 51 296 0.0 2.0 0.00 0.00 0.00 58 1014.2
20260510062041 51 310 1.0 2.0 0.00 0.00 0.00 57 1014.2
20260510061541 51 337 1.0 2.0 0.00 0.00 0.00 57 1014.3
20260510061041 51 338 1.0 3.0 0.00 0.00 0.00 57 1014.2
20260510060541 51 333 0.0 3.0 0.00 0.00 0.00 58 1014.2
20260510060041 51 309 0.0 3.0 0.00 0.00 0.00 57 1014.3
20260510055541 51 323 1.0 3.0 0.00 0.00 0.00 59 1014.3
20260510055041 51 338 0.0 3.0 0.00 0.00 0.00 60 1014.3
20260510054541 52 305 0.0 3.0 0.00 0.00 0.00 59 1014.3
20260510054041 52 302 0.0 1.0 0.00 0.00 0.00 58 1014.3
20260510053541 52 344 0.0 1.0 0.00 0.00 0.00 57 1014.4
20260510053041 52 330 0.0 1.0 0.00 0.00 0.00 56 1014.4
20260510052543 52 0 0.0 1.0 0.00 0.00 0.00 54 1014.4
20260510052041 52 343 0.0 1.0 0.00 0.00 0.00 53 1014.4
20260510051540 52 344 0.0 1.0 0.00 0.00 0.00 52 1014.3
20260510051041 52 343 0.0 1.0 0.00 0.00 0.00 50 1014.3
20260510050541 52 0 0.0 0.0 0.00 0.00 0.00 47 1014.3
20260510050042 52 0 0.0 0.0 0.00 0.00 0.00 45 1014.3
20260510045541 52 0 0.0 0.0 0.00 0.00 0.00 49 1014.3
20260510045041 52 0 0.0 1.0 0.00 0.00 0.00 49 1014.3
20260510044541 52 334 0.0 1.0 0.00 0.00 0.00 49 1014.3
20260510044041 52 350 0.0 1.0 0.00 0.00 0.00 51 1014.2
20260510043541 52 0 0.0 1.0 0.00 0.00 0.00 51 1014.2
20260510043041 52 347 0.0 1.0 0.00 0.00 0.00 51 1014.2
20260510042542 53 345 0.0 1.0 0.00 0.00 0.00 49 1014.2
20260510042041 53 329 0.0 3.0 0.00 0.00 0.00 47 1014.2
20260510041541 53 333 0.0 3.0 0.00 0.00 0.00 47 1014.2
20260510041041 53 340 0.0 3.0 0.00 0.00 0.00 45 1014.2
20260510040541 54 334 0.0 2.0 0.00 0.00 0.00 43 1014.2
20260510040041 54 337 0.0 1.0 0.00 0.00 0.00 46 1014.2
20260510035541 54 333 0.0 1.0 0.00 0.00 0.00 46 1014.2
20260510035041 54 0 0.0 0.0 0.00 0.00 0.00 46 1014.1
20260510034540 54 0 0.0 0.0 0.00 0.00 0.00 45 1014.1
20260510034040 55 0 0.0 0.0 0.00 0.00 0.00 44 1014.1
20260510033541 55 0 0.0 0.0 0.00 0.00 0.00 43 1014.1
20260510033040 55 0 0.0 0.0 0.00 0.00 0.00 42 1014.0
20260510032541 55 0 0.0 0.0 0.00 0.00 0.00 43 1013.8
20260510032041 55 0 0.0 0.0 0.00 0.00 0.00 44 1013.7
20260510031540 55 0 0.0 0.0 0.00 0.00 0.00 46 1013.7
20260510031040 55 0 0.0 0.0 0.00 0.00 0.00 48 1013.8
20260510030540 55 0 0.0 0.0 0.00 0.00 0.00 49 1013.8
20260510030040 56 0 0.0 0.0 0.00 0.00 0.00 50 1013.8
20260510025540 56 0 0.0 0.0 0.00 0.00 0.00 51 1013.8
20260510025040 56 0 0.0 0.0 0.00 0.00 0.00 52 1013.8
20260510024540 56 0 0.0 0.0 0.00 0.00 0.00 52 1013.8
20260510024040 56 330 0.0 2.0 0.00 0.00 0.00 51 1013.8
20260510023540 57 343 0.0 2.0 0.00 0.00 0.00 50 1014.0
20260510023040 57 338 0.0 2.0 0.00 0.00 0.00 47 1014.0
20260510022540 58 336 0.0 1.0 0.00 0.00 0.00 47 1014.0
20260510022040 58 333 0.0 1.0 0.00 0.00 0.00 48 1014.0
20260510021540 59 326 0.0 1.0 0.00 0.00 0.00 47 1014.0
20260510021041 59 0 0.0 1.0 0.00 0.00 0.00 1 1014.0
20260510020540 59 329 0.0 1.0 0.00 0.00 0.00 1 1014.0
20260510020040 59 336 0.0 1.0 0.00 0.00 0.00 1 1014.1
20260510015540 60 354 0.0 1.0 0.00 0.00 0.00 44 1014.1
20260510015040 60 0 0.0 1.0 0.00 0.00 0.00 45 1014.2
20260510014540 60 341 0.0 1.0 0.00 0.00 0.00 43 1014.1
20260510014040 60 0 0.0 0.0 0.00 0.00 0.00 42 1014.2
20260510013540 60 322 0.0 1.0 0.00 0.00 0.00 41 1014.2
20260510013040 60 0 0.0 1.0 0.00 0.00 0.00 42 1014.3
20260510012540 60 343 0.0 1.0 0.00 0.00 0.00 43 1014.3
20260510012040 60 19 0.0 1.0 0.00 0.00 0.00 43 1014.4
20260510011540 60 338 0.0 2.0 0.00 0.00 0.00 45 1014.4
20260510011040 61 333 0.0 2.0 0.00 0.00 0.00 44 1014.4
20260510010540 61 336 0.0 2.0 0.00 0.00 0.00 45 1014.5
20260510010041 61 336 0.0 1.0 0.00 0.00 0.00 44 1014.5
20260510005540 62 326 0.0 1.0 0.00 0.00 0.00 45 1014.5
20260510005041 63 336 0.0 1.0 0.00 0.00 0.00 45 1014.5
20260510004540 63 329 0.0 1.0 0.00 0.00 0.00 47 1014.6
20260510004040 63 292 0.0 1.0 0.00 0.00 0.00 47 1014.6
20260510003540 63 0 0.0 0.0 0.00 0.00 0.00 47 1014.6
20260510003040 63 338 0.0 0.0 0.00 0.00 0.00 48 1014.6
20260510002540 63 0 0.0 0.0 0.00 0.00 0.00 48 1014.6
20260510002040 63 0 0.0 0.0 0.00 0.00 0.00 49 1014.7
20260510001540 63 0 0.0 0.0 0.00 0.00 0.00 48 1014.7
20260510001041 63 0 0.0 0.0 0.00 0.00 0.00 48 1014.7
20260510000542 63 0 0.0 0.0 0.00 0.00 0.00 48 1014.7
20260510000040 63 0 0.0 0.0 0.00 0.00 0.00 49 1014.7
20260509235540 63 0 0.0 1.0 0.00 0.00 0.00 48 1014.8
20260509235040 63 0 0.0 1.0 0.00 0.00 0.00 48 1014.7
20260509234540 63 301 0.0 1.0 0.00 0.00 0.00 48 1014.8
20260509234040 63 0 0.0 0.0 0.00 0.00 0.00 47 1015.0
20260509233540 63 0 0.0 3.0 0.00 0.00 0.00 46 1014.8
20260509233040 63 0 0.0 3.0 0.00 0.00 0.00 46 1015.0
20260509232541 63 357 0.0 3.0 0.00 0.00 0.00 47 1015.1
20260509232040 63 0 0.0 2.0 0.00 0.00 0.00 46 1015.1
20260509231540 64 329 0.0 2.0 0.00 0.00 0.00 46 1015.3
20260509231041 63 302 0.0 2.0 0.00 0.00 0.00 46 1015.3
20260509230540 64 0 0.0 0.0 0.00 0.00 0.00 46 1015.4
20260509230040 64 345 0.0 2.0 0.00 0.00 0.00 46 1015.4
20260509225540 64 331 0.0 2.0 0.00 0.00 0.00 46 1015.4
20260509225040 64 305 1.0 2.0 0.00 0.00 0.00 46 1015.5
20260509224540 64 310 0.0 3.0 0.00 0.00 0.00 44 1015.4
20260509224040 64 46 0.0 3.0 0.00 0.00 0.00 44 1015.5
20260509223540 64 42 0.0 3.0 0.00 0.00 0.00 45 1015.5
20260509223040 64 22 0.0 1.0 0.00 0.00 0.00 45 1015.5
20260509222540 64 0 0.0 0.0 0.00 0.00 0.00 46 1015.5
20260509222040 63 0 0.0 3.0 0.00 0.00 0.00 46 1015.6
20260509221540 63 57 0.0 3.0 0.00 0.00 0.00 46 1015.6
20260509221040 63 30 0.0 3.0 0.00 0.00 0.00 47 1015.5
20260509220540 63 37 1.0 3.0 0.00 0.00 0.00 48 1015.6
20260509220040 62 42 0.0 3.0 0.00 0.00 0.00 47 1015.9
20260509215540 62 61 0.0 2.0 0.00 0.00 0.00 48 1016.0
20260509215040 62 49 0.0 4.0 0.00 0.00 0.00 47 1016.0
20260509214540 62 44 0.0 4.0 0.00 0.00 0.00 48 1016.1
20260509214040 62 50 0.0 4.0 0.00 0.00 0.00 47 1016.1
20260509213540 62 310 0.0 3.0 0.00 0.00 0.00 47 1016.3
20260509213040 62 22 0.0 2.0 0.00 0.00 0.00 48 1016.3
20260509212542 62 0 0.0 3.0 0.00 0.00 0.00 48 1016.4
20260509212040 62 0 0.0 3.0 0.00 0.00 0.00 48 1016.4
20260509211540 61 23 0.0 3.0 0.00 0.00 0.00 49 1016.4
20260509211040 61 37 0.0 3.0 0.00 0.00 0.00 48 1016.4
20260509210543 61 60 0.0 3.0 0.00 0.00 0.00 49 1016.4
20260509210040 61 340 0.0 3.0 0.00 0.00 0.00 48 1016.5
20260509205540 61 326 0.0 1.0 0.00 0.00 0.00 48 1016.5
20260509205040 61 340 0.0 4.0 0.00 0.00 0.00 49 1016.5
20260509204540 61 0 0.0 4.0 0.00 0.00 0.00 48 1016.5
20260509204040 61 280 0.0 4.0 0.00 0.00 0.00 49 1016.6
20260509203540 61 0 0.0 0.0 0.00 0.00 0.00 49 1016.6
20260509203040 61 0 0.0 0.0 0.00 0.00 0.00 49 1016.6
20260509202540 61 0 0.0 0.0 0.00 0.00 0.00 49 1016.6
20260509202040 62 0 0.0 0.0 0.00 0.00 0.00 48 1016.6
20260509201540 62 0 0.0 0.0 0.00 0.00 0.00 48 1016.7
20260509201040 62 0 0.0 0.0 0.00 0.00 0.00 48 1016.5
20260509200540 62 0 0.0 0.0 0.00 0.00 0.00 49 1016.6
20260509200040 61 0 0.0 2.0 0.00 0.00 0.00 48 1016.6
20260509195541 61 0 0.0 2.0 0.00 0.00 0.00 50 1016.7
20260509195040 61 57 0.0 2.0 0.00 0.00 0.00 49 1016.9
20260509194540 60 0 0.0 0.0 0.00 0.00 0.00 50 1016.9
20260509194040 60 0 0.0 2.0 0.00 0.00 0.00 50 1017.0
20260509193540 60 0 0.0 2.0 0.00 0.00 0.00 50 1017.0
20260509193040 60 15 0.0 2.0 0.00 0.00 0.00 49 1017.1
20260509192541 60 32 0.0 1.0 0.00 0.00 0.00 48 1017.0
20260509192040 60 0 0.0 0.0 0.00 0.00 0.00 47 1017.0
20260509191540 60 0 0.0 0.0 0.00 0.00 0.00 50 1017.0
20260509191040 60 32 0.0 0.0 0.00 0.00 0.00 51 1017.1
20260509190539 59 0 0.0 0.0 0.00 0.00 0.00 51 1017.0
20260509190040 59 0 0.0 0.0 0.00 0.00 0.00 52 1017.1
20260509185540 59 9 0.0 0.0 0.00 0.00 0.00 52 1017.1
20260509185040 59 0 0.0 0.0 0.00 0.00 0.00 52 1017.1
20260509184539 59 0 0.0 0.0 0.00 0.00 0.00 52 1017.1
20260509184040 59 0 0.0 0.0 0.00 0.00 0.00 53 1017.1
20260509183539 58 9 0.0 0.0 0.00 0.00 0.00 54 1017.1
20260509183039 58 9 0.0 2.0 0.00 0.00 0.00 52 1017.2
20260509182541 58 0 0.0 2.0 0.00 0.00 0.00 55 1017.2
20260509182039 58 63 0.0 2.0 0.00 0.00 0.00 55 1017.0
20260509181539 58 0 0.0 0.0 0.00 0.00 0.00 55 1017.0
20260509181041 57 0 0.0 0.0 0.00 0.00 0.00 56 1017.1
20260509180540 57 0 0.0 0.0 0.00 0.00 0.00 56 1017.0
20260509180039 57 0 0.0 1.0 0.00 0.00 0.00 55 1017.1
20260509175539 57 238 0.0 1.0 0.00 0.00 0.00 56 1017.0
20260509175040 57 277 0.0 1.0 0.00 0.00 0.00 56 1017.0
20260509174544 57 148 0.0 1.0 0.00 0.00 0.00 56 1017.0
20260509174039 57 96 0.0 1.0 0.00 0.00 0.00 57 1017.0
20260509173539 56 0 0.0 1.0 0.00 0.00 0.00 58 1017.1
20260509173039 56 357 0.0 1.0 0.00 0.00 0.00 55 1017.0
20260509172542 56 14 0.0 0.0 0.00 0.00 0.00 57 1017.0
20260509172039 56 0 0.0 0.0 0.00 0.00 0.00 56 1017.0
20260509171539 56 243 0.0 2.0 0.00 0.00 0.00 56 1017.0
20260509171039 56 0 0.0 2.0 0.00 0.00 0.00 55 1017.0
20260509170539 55 243 0.0 2.0 0.00 0.00 0.00 57 1017.0
20260509170041 55 0 0.0 0.0 0.00 0.00 0.00 57 1017.0
20260509165539 55 0 0.0 0.0 0.00 0.00 0.00 55 1017.1
20260509165039 55 65 0.0 0.0 0.00 0.00 0.00 57 1016.9
20260509164539 55 84 0.0 4.0 0.00 0.00 0.00 58 1016.9
20260509164039 55 109 0.0 4.0 0.00 0.00 0.00 60 1016.7
20260509163539 54 110 0.0 4.0 0.00 0.00 0.00 60 1016.7
20260509163039 54 114 0.0 2.0 0.00 0.00 0.00 59 1016.9
20260509162539 54 169 0.0 2.0 0.00 0.00 0.00 61 1016.9
20260509162039 54 93 0.0 2.0 0.00 0.00 0.00 62 1016.7
20260509161539 53 106 0.0 2.0 0.00 0.00 0.00 62 1016.7
20260509161039 53 119 0.0 2.0 0.00 0.00 0.00 63 1016.7
20260509160539 53 109 0.0 3.0 0.00 0.00 0.00 64 1016.7
20260509160039 53 70 1.0 3.0 0.00 0.00 0.00 65 1016.9
20260509155539 52 126 0.0 3.0 0.00 0.00 0.00 65 1016.9
20260509155039 52 109 0.0 2.0 0.00 0.00 0.00 65 1017.0
20260509154539 52 86 0.0 2.0 0.00 0.00 0.00 66 1017.0
20260509154039 52 99 0.0 2.0 0.00 0.00 0.00 66 1017.0
20260509153539 52 239 0.0 0.0 0.00 0.00 0.00 66 1017.0
20260509153039 52 239 0.0 0.0 0.00 0.00 0.00 67 1017.1
20260509152540 51 239 0.0 3.0 0.00 0.00 0.00 67 1017.1
20260509152040 51 239 0.0 3.0 0.00 0.00 0.00 67 1017.1
20260509151540 51 72 0.0 3.0 0.00 0.00 0.00 67 1017.0
20260509151039 51 72 0.0 0.0 0.00 0.00 0.00 68 1017.0
20260509150539 50 0 0.0 0.0 0.00 0.00 0.00 68 1017.0
20260509150039 50 0 0.0 0.0 0.00 0.00 0.00 69 1017.1
20260509145539 50 0 0.0 0.0 0.00 0.00 0.00 70 1017.1
20260509145039 50 0 0.0 0.0 0.00 0.00 0.00 70 1017.2
20260509144539 50 0 0.0 0.0 0.00 0.00 0.00 70 1017.2
20260509144039 50 0 0.0 0.0 0.00 0.00 0.00 70 1017.2
20260509143539 50 0 0.0 0.0 0.00 0.00 0.00 69 1017.3
20260509143041 49 0 0.0 0.0 0.00 0.00 0.00 70 1017.3
20260509142541 49 0 0.0 0.0 0.00 0.00 0.00 70 1017.3
20260509142041 49 0 0.0 0.0 0.00 0.00 0.00 71 1017.3
20260509141539 49 0 0.0 0.0 0.00 0.00 0.00 70 1017.4
20260509141040 49 0 0.0 0.0 0.00 0.00 0.00 71 1017.3
20260509140539 49 0 0.0 0.0 0.00 0.00 0.00 71 1017.2
20260509140042 48 0 0.0 0.0 0.00 0.00 0.00 71 1017.1
20260509135539 48 0 0.0 0.0 0.00 0.00 0.00 72 1017.0
20260509135039 48 0 0.0 0.0 0.00 0.00 0.00 73 1016.9
20260509134539 48 0 0.0 0.0 0.00 0.00 0.00 72 1016.9
20260509134039 48 0 0.0 0.0 0.00 0.00 0.00 73 1017.0
20260509133539 48 0 0.0 0.0 0.00 0.00 0.00 73 1017.1
20260509133039 47 0 0.0 0.0 0.00 0.00 0.00 73 1017.0
20260509132540 47 0 0.0 0.0 0.00 0.00 0.00 73 1017.0
20260509132039 47 0 0.0 0.0 0.00 0.00 0.00 73 1017.0
20260509131539 47 0 0.0 0.0 0.00 0.00 0.00 73 1017.0
20260509131039 46 0 0.0 0.0 0.00 0.00 0.00 75 1017.0
20260509130541 46 0 0.0 0.0 0.00 0.00 0.00 75 1017.1
20260509130039 46 0 0.0 0.0 0.00 0.00 0.00 75 1017.2
20260509125540 46 0 0.0 0.0 0.00 0.00 0.00 75 1017.1
20260509125039 46 0 0.0 0.0 0.00 0.00 0.00 75 1017.2
20260509124539 46 0 0.0 0.0 0.00 0.00 0.00 75 1017.2
20260509124039 46 0 0.0 0.0 0.00 0.00 0.00 75 1017.2
20260509123539 46 0 0.0 0.0 0.00 0.00 0.00 75 1017.3
20260509123039 46 0 0.0 0.0 0.00 0.00 0.00 76 1017.3
20260509122539 46 0 0.0 0.0 0.00 0.00 0.00 76 1017.4
20260509122039 46 0 0.0 0.0 0.00 0.00 0.00 76 1017.4
20260509121539 46 0 0.0 0.0 0.00 0.00 0.00 76 1017.5
20260509121041 46 0 0.0 0.0 0.00 0.00 0.00 76 1017.4
20260509120539 46 0 0.0 0.0 0.00 0.00 0.00 76 1017.5
20260509120039 46 0 0.0 0.0 0.00 0.00 0.00 77 1017.5
20260509115541 46 0 0.0 0.0 0.00 0.00 0.00 77 1017.6
20260509115039 46 0 0.0 0.0 0.00 0.00 0.00 77 1017.7
20260509114539 45 0 0.0 0.0 0.00 0.00 0.00 77 1017.9
20260509114039 45 0 0.0 0.0 0.00 0.00 0.00 77 1017.7
20260509113539 45 0 0.0 0.0 0.00 0.00 0.00 77 1017.7
20260509113039 45 0 0.0 0.0 0.00 0.00 0.00 77 1017.7
20260509112539 45 0 0.0 0.0 0.00 0.00 0.00 77 1017.7
20260509112039 45 0 0.0 0.0 0.00 0.00 0.00 77 1017.7
20260509111540 45 0 0.0 0.0 0.00 0.00 0.00 77 1017.7
20260509111039 45 0 0.0 0.0 0.00 0.00 0.00 77 1017.7
20260509110539 45 0 0.0 0.0 0.00 0.00 0.00 77 1017.7
20260509110039 45 0 0.0 0.0 0.00 0.00 0.00 77 1017.6
20260509105539 45 0 0.0 0.0 0.00 0.00 0.00 77 1017.7
20260509105042 45 0 0.0 0.0 0.00 0.00 0.00 76 1017.6
20260509104539 45 0 0.0 0.0 0.00 0.00 0.00 77 1017.7
20260509104040 45 0 0.0 0.0 0.00 0.00 0.00 77 1017.9
20260509103539 45 0 0.0 0.0 0.00 0.00 0.00 77 1017.9
20260509103039 45 0 0.0 0.0 0.00 0.00 0.00 76 1018.0
20260509102539 45 0 0.0 0.0 0.00 0.00 0.00 77 1018.0
20260509102039 45 0 0.0 0.0 0.00 0.00 0.00 77 1018.1